Location: Ottawa
(45.4170°N, 75.7000°W)
Time: 01:25:37
(UTC-05:00)

Amateur Radio Satellites - All Passes

Search period start: 22 December 2014 00:55
Search period end: 23 December 2014 00:55
Location: Ottawa, 45.4170°N, 75.7000°W

Satellite Date Start Highest point End Downlink Frequencies (MHz)
Time Altitude Azimuth
YUBILEINY 22 Dec 01:03:10 01:11:20 43° 289° (WNW) 01:19:32 435.215
Oscar 19 22 Dec 01:09:04 01:13:57 39° 97° (E) 01:18:48 437.125/150
SWISSCUBE 22 Dec 01:11:56 01:16:29 42° 261° (W) 01:21:04 437.505
ITUPSAT 1 22 Dec 01:12:54 01:17:31 46° 261° (W) 01:22:09 437.325
ITAMSAT 1 22 Dec 01:28:27 01:32:29 23° 93° (E) 01:36:30 435.822/435.867
Gurwin Techsat 1B 22 Dec 01:32:17 01:35:29 16° 89° (E) 01:38:40 435.225
BEESAT 22 Dec 01:37:19 01:41:22 27° 265° (W) 01:45:26 436.000
AUBIESAT-1 22 Dec 01:42:00 01:46:31 38° 258° (WSW) 01:51:05 437.475
O/OREOS (USA 219) 22 Dec 01:51:15 01:54:41 21° 308° (NW) 01:58:08 437.305
M-CUBED/EXP-1 PRIME 22 Dec 02:09:53 02:13:30 21° 263° (W) 02:17:09 437.505
STARS 22 Dec 02:10:22 02:14:44 75° 257° (WSW) 02:19:09 437.465
KKS-1 22 Dec 02:17:27 02:21:39 43° 261° (W) 02:25:54 437.445
SO-50 22 Dec 02:31:49 02:32:42 10° 20° (NNE) 02:33:36 436.795
VERMONT LUNAR 22 Dec 02:32:07 02:34:37 18° 157° (SSE) 02:37:06 437.305
Oscar 19 22 Dec 02:48:40 02:53:09 30° 295° (WNW) 02:57:37 437.125/150
AIST 1 22 Dec 02:49:13 02:53:16 40° 76° (ENE) 02:57:16
AO-7 22 Dec 02:50:39 02:56:12 19° 89° (E) 03:01:41 29.400- 29.500
PHONESAT 2.4 22 Dec 02:52:59 02:55:31 18° 157° (SSE) 02:58:02 2401.200-2431.200
ITAMSAT 1 22 Dec 03:07:15 03:12:15 50° 290° (WNW) 03:17:13 435.822/435.867
Gurwin Techsat 1B 22 Dec 03:10:42 03:16:01 73° 287° (WNW) 03:21:17 435.225
GONETS M04 22 Dec 03:14:07 03:14:51 10° 68° (ENE) 03:15:36
MOZHAYETS 4 22 Dec 03:36:57 03:41:22 45° 70° (ENE) 03:45:49
HORYU 2 22 Dec 03:37:50 03:42:23 89° 286° (WNW) 03:46:54 437.375
JAS-2 22 Dec 03:38:58 03:39:24 10° 83° (E) 03:39:50 435.910
PRISM 22 Dec 03:51:51 03:52:54 11° 58° (ENE) 03:53:58 437.425
VERMONT LUNAR 22 Dec 04:09:09 04:12:24 35° 174° (S) 04:15:39 437.305
SO-50 22 Dec 04:10:23 04:14:46 32° 42° (NE) 04:19:11 436.795
STRAND 1 22 Dec 04:17:04 04:18:46 12° 55° (NE) 04:20:28 437.568
AIST 1 22 Dec 04:27:38 04:30:37 19° 274° (W) 04:33:35
PHONESAT 2.4 22 Dec 04:30:19 04:33:39 35° 173° (S) 04:37:00 2401.200-2431.200
AO-7 22 Dec 04:41:42 04:50:09 85° 109° (ESE) 04:58:31 29.400- 29.500
Gurwin Techsat 1B 22 Dec 04:53:06 04:55:03 12° 306° (NW) 04:57:00 435.225
GONETS M04 22 Dec 05:01:01 05:09:32 56° 90° (E) 05:18:04
CUBESAT XI-V 22 Dec 05:04:52 05:08:53 29° 67° (ENE) 05:12:53 437.345
CUTE-I 22 Dec 05:08:56 05:11:53 15° 89° (E) 05:14:49 437.470
MOZHAYETS 4 22 Dec 05:15:16 05:18:48 21° 268° (W) 05:22:22
HORYU 2 22 Dec 05:16:46 05:18:20 12° 303° (WNW) 05:19:55 437.375
JAS-2 22 Dec 05:19:58 05:25:40 82° 104° (ESE) 05:30:54 435.910
PRISM 22 Dec 05:23:31 05:27:46 89° 256° (WSW) 05:32:01 437.425
VERMONT LUNAR 22 Dec 05:47:10 05:50:20 31° 191° (S) 05:53:29 437.305
SO-50 22 Dec 05:50:49 05:55:28 44° 241° (WSW) 06:00:07 436.795
STRAND 1 22 Dec 05:51:59 05:57:04 74° 73° (ENE) 06:02:11 437.568
PHONESAT 2.4 22 Dec 06:08:40 06:11:58 32° 190° (S) 06:15:14 2401.200-2431.200
Cubesat XI-IV 22 Dec 06:14:27 06:19:42 57° 101° (E) 06:24:55 437.490
AO-7 22 Dec 06:35:28 06:42:01 27° 310° (NW) 06:48:34 29.400- 29.500
CUBESAT XI-V 22 Dec 06:42:02 06:46:15 33° 264° (W) 06:50:27 437.345
CUTE-I 22 Dec 06:47:14 06:52:34 78° 287° (WNW) 06:57:52 437.470
GONETS M04 22 Dec 06:58:44 07:06:43 37° 292° (WNW) 07:14:46
JAS-2 22 Dec 07:06:36 07:09:56 16° 305° (NW) 07:13:08 435.910
VERMONT LUNAR 22 Dec 07:26:16 07:28:01 13° 207° (SSW) 07:29:46 437.305
STRAND 1 22 Dec 07:33:58 07:36:49 15° 271° (W) 07:39:41 437.568
MaSat-1 22 Dec 07:41:37 07:42:22 11° 109° (ESE) 07:43:06 437.345
PHONESAT 2.4 22 Dec 07:47:59 07:50:02 15° 206° (SSW) 07:52:06 2401.200-2431.200
BRITE-PL 22 Dec 07:50:21 07:53:32 17° 92° (E) 07:56:50 437.365/2234.400
Cubesat XI-IV 22 Dec 07:55:20 07:59:24 23° 299° (WNW) 08:03:27 437.490
CANX-2 22 Dec 08:01:46 08:04:48 18° 92° (E) 08:07:49 2200.000
GOMX 1 22 Dec 08:08:10 08:11:36 19° 92° (E) 08:15:10 467.674
HO-68 22 Dec 08:17:34 08:23:59 35° 96° (E) 08:30:21 435.675
COMPASS 1 22 Dec 08:18:40 08:21:39 18° 92° (E) 08:24:37 437.405
DOVE 4 22 Dec 08:25:28 08:29:07 21° 93° (E) 08:32:53 437.250
SEEDS 22 Dec 08:26:09 08:29:46 26° 94° (E) 08:33:21 437.485
CUTE-I 22 Dec 08:29:27 08:31:46 13° 305° (NW) 08:34:05 437.470
ANTELSAT 22 Dec 08:30:24 08:32:58 15° 60° (ENE) 08:35:34 437.575/2403.000
CUTE 1.7 + AOD 2 22 Dec 08:31:41 08:35:38 34° 96° (E) 08:39:33 437.475
CINEMA 3 22 Dec 08:38:32 08:41:40 17° 91° (E) 08:44:51 145.822/145.860
O/OREOS (USA 219) 22 Dec 08:39:52 08:43:02 18° 51° (NE) 08:46:12 437.305
DANDE 22 Dec 08:41:46 08:44:47 22° 83° (E) 08:48:30 436.750
POPSAT HIP 1 22 Dec 08:46:20 08:48:23 13° 60° (ENE) 08:50:26 437.405
DX 1 22 Dec 08:55:43 08:58:15 15° 91° (E) 09:00:46 434.975-435.025
TIGRISAT 22 Dec 09:03:16 09:07:04 29° 67° (ENE) 09:10:58 435.000
BUGSAT 1 22 Dec 09:03:24 09:05:49 15° 62° (ENE) 09:08:13 437.445
DUCHIFAT 1 22 Dec 09:11:53 09:15:13 23° 65° (ENE) 09:18:34 145.980
YUBILEINY 22 Dec 09:13:38 09:20:40 26° 63° (ENE) 09:27:40 435.215
MaSat-1 22 Dec 09:13:45 09:15:22 17° 305° (NW) 09:16:59 437.345
Oscar 11 22 Dec 09:14:04 09:18:00 32° 96° (E) 09:21:54 145.826/435.025
AAUSAT CUBESAT 2 22 Dec 09:16:41 09:20:56 67° 101° (ESE) 09:25:08 437.432
CUSAT 1 22 Dec 09:23:03 09:26:55 76° 98° (E) 09:32:14 437.405
UKube-1 22 Dec 09:23:54 09:27:39 28° 96° (E) 09:31:24 .
QB50P2 22 Dec 09:26:14 09:30:01 33° 68° (ENE) 09:33:49 145.880/145.840
BRITE-PL 22 Dec 09:27:42 09:32:20 60° 287° (WNW) 09:37:20 437.365/2234.400
UNISAT 6 22 Dec 09:32:45 09:37:04 59° 72° (ENE) 09:41:32 437.425
RS-15 22 Dec 09:35:22 09:41:39 17° 97° (E) 09:47:54 29.354- 29.394
POLYITAN 1 22 Dec 09:35:31 09:39:28 41° 70° (ENE) 09:43:27 437.675
NANOSAT C BR1 22 Dec 09:36:08 09:40:04 41° 70° (ENE) 09:44:02 145.865
CANX-2 22 Dec 09:36:50 09:40:59 45° 289° (WNW) 09:45:05 2200.000
GOMX 1 22 Dec 09:45:19 09:49:59 56° 287° (WNW) 09:54:57 467.674
CUBEBUG 2 22 Dec 09:45:54 09:50:24 47° 99° (E) 09:54:58 437.445
ZACube-1 22 Dec 09:48:53 09:53:06 36° 97° (E) 09:57:20 437.345
QB50P1 22 Dec 09:50:39 09:54:46 59° 73° (ENE) 09:58:56 145.935-145.965
COMPASS 1 22 Dec 09:53:32 09:57:36 44° 289° (WNW) 10:01:38 437.405
VELOX 1 22 Dec 09:57:23 10:00:57 23° 94° (E) 10:04:29 145.980
DELFI C3 22 Dec 09:58:56 10:03:05 81° 103° (ESE) 10:07:11 145.870
50 SAT 22 Dec 09:59:57 10:03:11 21° 93° (E) 10:06:23 437.505
SEEDS 22 Dec 10:01:47 10:05:36 32° 292° (WNW) 10:09:24 437.485
DOVE 4 22 Dec 10:02:28 10:07:05 50° 288° (WNW) 10:11:57 437.250
ANTELSAT 22 Dec 10:04:51 10:09:13 66° 259° (WSW) 10:13:44 437.575/2403.000
HO-68 22 Dec 10:05:03 10:11:55 52° 295° (WNW) 10:18:44 435.675
ESTCUBE 1 22 Dec 10:07:40 10:09:42 13° 89° (E) 10:11:44 437.505/2401.250
CUTE 1.7 + AOD 2 22 Dec 10:07:53 10:11:25 25° 294° (WNW) 10:14:55 437.475
CINEMA 3 22 Dec 10:14:31 10:19:12 61° 287° (WNW) 10:24:02 145.822/145.860
FUNcube-1 22 Dec 10:14:52 10:19:24 66° 101° (ESE) 10:23:58 145.935
O/OREOS (USA 219) 22 Dec 10:18:24 10:22:51 60° 250° (WSW) 10:27:18 437.305
POPSAT HIP 1 22 Dec 10:19:34 10:23:44 68° 258° (WSW) 10:27:58 437.405
UWE-3 22 Dec 10:20:13 10:24:51 88° 105° (ESE) 10:29:32 435.000/436.395/437.385
DANDE 22 Dec 10:24:23 10:27:54 32° 293° (WNW) 10:32:31 436.750
DX 1 22 Dec 10:30:35 10:34:51 56° 288° (WNW) 10:39:06 434.975-435.025
HUMSAT D 22 Dec 10:35:36 10:39:56 65° 101° (ESE) 10:44:15 437.325/437.525
BUGSAT 1 22 Dec 10:36:56 10:40:55 53° 260° (W) 10:44:54 437.445
TIGRISAT 22 Dec 10:39:55 10:43:46 30° 265° (W) 10:47:43 435.000
CUBEBUG 1 22 Dec 10:40:47 10:44:26 26° 95° (E) 10:48:03 437.445
AISAT 22 Dec 10:41:03 10:45:29 67° 102° (ESE) 10:49:54 437.250
DUCHIFAT 1 22 Dec 10:47:04 10:50:55 35° 263° (W) 10:54:47 145.980
Oscar 11 22 Dec 10:50:23 10:54:04 27° 293° (WNW) 10:57:44 145.826/435.025
Oscar 19 22 Dec 10:53:14 10:54:42 11° 54° (NE) 10:56:10 437.125/150
AAUSAT CUBESAT 2 22 Dec 10:53:54 10:56:04 14° 299° (WNW) 10:58:13 437.432
UKube-1 22 Dec 11:00:00 11:03:47 30° 293° (WNW) 11:07:33 .
QB50P2 22 Dec 11:02:33 11:05:59 24° 266° (W) 11:09:27 145.880/145.840
CUSAT 1 22 Dec 11:09:03 11:11:13 13° 307° (NW) 11:13:40 437.405
YUBILEINY 22 Dec 11:09:45 11:18:26 77° 265° (W) 11:27:05 435.215
UNISAT 6 22 Dec 11:11:44 11:14:17 15° 271° (W) 11:16:53 437.425
POLYITAN 1 22 Dec 11:12:32 11:15:36 19° 267° (W) 11:18:41 437.675
NANOSAT C BR1 22 Dec 11:13:05 11:16:08 19° 267° (W) 11:19:12 145.865
CUBEBUG 2 22 Dec 11:23:16 11:26:48 22° 295° (WNW) 11:30:24 437.445
ZACube-1 22 Dec 11:25:33 11:29:19 26° 294° (WNW) 11:33:06 437.345
QB50P1 22 Dec 11:28:54 11:31:03 14° 270° (W) 11:33:13 145.935-145.965
TISAT 1 22 Dec 11:32:00 11:35:23 23° 94° (E) 11:38:46 437.305
VELOX 1 22 Dec 11:33:33 11:37:38 37° 291° (WNW) 11:41:42 145.980
50 SAT 22 Dec 11:34:40 11:38:29 36° 290° (WNW) 11:42:18 437.505
DELFI C3 22 Dec 11:36:32 11:37:43 11° 301° (WNW) 11:38:54 145.870
RS-15 22 Dec 11:41:02 11:51:52 73° 119° (ESE) 12:02:47 29.354- 29.394
SPROUT 22 Dec 11:41:15 11:44:57 27° 95° (E) 11:48:38 437.525
ESTCUBE 1 22 Dec 11:42:35 11:47:05 70° 286° (WNW) 11:51:32 437.505/2401.250
FUNcube-1 22 Dec 11:52:33 11:55:15 16° 299° (WNW) 11:57:57 145.935
HO-68 22 Dec 11:55:31 11:58:01 12° 316° (NW) 12:00:31 435.675
UWE-3 22 Dec 11:58:49 12:00:44 13° 301° (WNW) 12:02:39 435.000/436.395/437.385
HUMSAT D 22 Dec 12:12:50 12:15:13 15° 299° (WNW) 12:17:37 437.325/437.525
ISS 22 Dec 12:14:12 12:16:18 16° 134° (SE) 12:18:25 145.825
BEESAT 3 22 Dec 12:14:33 12:17:59 26° 115° (ESE) 12:21:27 437.485
CUBEBUG 1 22 Dec 12:16:58 12:20:50 32° 292° (WNW) 12:24:41 437.445
AISAT 22 Dec 12:19:06 12:21:36 15° 300° (WNW) 12:24:05 437.250
Oscar 19 22 Dec 12:27:59 12:33:05 70° 73° (ENE) 12:38:16 437.125/150
PCSat 22 Dec 12:31:40 12:36:01 25° 108° (ESE) 12:40:23 145.827
AIST 2 22 Dec 12:33:07 12:36:00 18° 111° (ESE) 12:38:56 435.215
ITAMSAT 1 22 Dec 12:48:20 12:53:12 43° 68° (ENE) 12:58:04 435.822/435.867
Gurwin Techsat 1B 22 Dec 12:55:00 12:59:39 32° 65° (ENE) 13:04:18 435.225
BEESAT 2 22 Dec 12:55:27 12:59:30 60° 121° (ESE) 13:03:39 435.950
HORYU 2 22 Dec 13:04:27 13:06:45 14° 59° (ENE) 13:09:05 437.375
TISAT 1 22 Dec 13:07:27 13:11:17 35° 291° (WNW) 13:15:08 437.305
YUBILEINY 22 Dec 13:08:59 13:13:40 16° 286° (WNW) 13:18:21 435.215
SWISSCUBE 22 Dec 13:10:05 13:14:36 41° 98° (E) 13:19:05 437.505
ITUPSAT 1 22 Dec 13:11:24 13:15:52 38° 98° (E) 13:20:18 437.325
SPROUT 22 Dec 13:17:15 13:21:01 30° 292° (WNW) 13:24:47 437.525
AUBIESAT-1 22 Dec 13:24:15 13:26:31 14° 94° (E) 13:28:41 437.475
BEESAT 22 Dec 13:34:32 13:39:18 66° 102° (ESE) 13:44:02 436.000
ISS 22 Dec 13:49:12 13:52:31 82° 332° (NNW) 13:55:49 145.825
M-CUBED/EXP-1 PRIME 22 Dec 13:50:15 13:54:04 29° 100° (E) 13:57:34 437.505
AO-7 22 Dec 13:51:39 13:58:55 35° 55° (NE) 14:06:12 29.400- 29.500
BEESAT 3 22 Dec 13:52:09 13:56:00 37° 313° (NW) 13:59:55 437.485
JAS-2 22 Dec 13:54:06 13:55:47 11° 50° (NE) 13:57:26 435.910
RS-15 22 Dec 13:54:53 14:05:06 43° 326° (NW) 14:15:33 29.354- 29.394
STARS 22 Dec 13:59:16 14:02:17 18° 92° (E) 14:05:17 437.465
KKS-1 22 Dec 14:06:34 14:10:32 30° 96° (E) 14:14:30 437.445
Oscar 19 22 Dec 14:09:50 14:12:58 16° 271° (W) 14:16:06 437.125/150
AIST 2 22 Dec 14:10:02 14:14:13 55° 310° (NW) 14:18:29 435.215
PCSat 22 Dec 14:13:47 14:19:05 54° 307° (NW) 14:24:25 145.827
ITAMSAT 1 22 Dec 14:28:30 14:32:50 27° 266° (W) 14:37:11 435.822/435.867
Gurwin Techsat 1B 22 Dec 14:34:36 14:39:31 38° 263° (W) 14:44:28 435.225
BEESAT 2 22 Dec 14:34:57 14:38:07 21° 321° (NW) 14:41:20 435.950
HORYU 2 22 Dec 14:38:22 14:42:50 74° 257° (WSW) 14:47:22 437.375
SWISSCUBE 22 Dec 14:48:23 14:52:15 25° 296° (WNW) 14:56:06 437.505
ITUPSAT 1 22 Dec 14:49:38 14:53:36 27° 295° (WNW) 14:57:32 437.325
AUBIESAT-1 22 Dec 14:57:41 15:01:58 57° 293° (WNW) 15:05:51 437.475
GONETS M04 22 Dec 15:08:43 15:16:18 31° 65° (ENE) 15:23:47
BEESAT 22 Dec 15:13:37 15:16:38 17° 300° (WNW) 15:19:39 436.000
AIST 1 22 Dec 15:21:48 15:25:10 22° 88° (E) 15:28:32
M-CUBED/EXP-1 PRIME 22 Dec 15:25:14 15:29:02 29° 300° (WNW) 15:32:32 437.505
ISS 22 Dec 15:26:28 15:29:25 29° 351° (N) 15:32:21 145.825
JAS-2 22 Dec 15:32:21 15:39:30 50° 68° (ENE) 15:46:00 435.910
STARS 22 Dec 15:34:44 15:39:02 50° 289° (WNW) 15:43:19 437.465
AO-7 22 Dec 15:43:01 15:51:15 63° 256° (WSW) 15:59:34 29.400- 29.500
KKS-1 22 Dec 15:43:15 15:47:08 30° 293° (WNW) 15:51:00 437.445
AIST 2 22 Dec 15:51:58 15:53:48 12° 331° (NNW) 15:55:38 435.215
PCSat 22 Dec 16:00:56 16:03:46 14° 330° (NNW) 16:06:37 145.827
Cubesat XI-IV 22 Dec 16:01:07 16:04:38 18° 59° (ENE) 16:08:09 437.490
RS-15 22 Dec 16:12:15 16:21:17 28° 360° (N) 16:30:33 29.354- 29.394
CUTE-I 22 Dec 16:32:22 16:37:00 31° 65° (ENE) 16:41:38 437.470
AIST 1 22 Dec 16:58:36 17:02:37 35° 285° (WNW) 17:06:38
ISS 22 Dec 17:03:37 17:06:36 31° 11° (N) 17:09:34 145.825
GONETS M04 22 Dec 17:05:09 17:13:48 66° 268° (W) 17:22:20
MOZHAYETS 4 22 Dec 17:06:57 17:11:36 81° 103° (ESE) 17:16:12
PRISM 22 Dec 17:07:03 17:08:11 11° 89° (E) 17:09:18 437.425
MaSat-1 22 Dec 17:07:33 17:09:47 37° 59° (ENE) 17:12:08 437.345
JAS-2 22 Dec 17:17:49 17:24:38 36° 264° (W) 17:30:56 435.910
Cubesat XI-IV 22 Dec 17:38:50 17:44:09 73° 257° (WSW) 17:49:30 437.490
AO-7 22 Dec 17:42:50 17:45:42 12° 276° (W) 17:48:36 29.400- 29.500
STRAND 1 22 Dec 18:01:10 18:04:59 21° 92° (E) 18:08:46 437.568
CUTE-I 22 Dec 18:12:00 18:16:57 39° 262° (W) 18:21:55 437.470
CUSAT 1 22 Dec 18:16:08 18:21:38 20° 60° (ENE) 18:27:30 437.405
RS-15 22 Dec 18:27:03 18:37:31 43° 34° (NNE) 18:48:21 29.354- 29.394
CUBESAT XI-V 22 Dec 18:36:09 18:40:40 52° 100° (E) 18:45:08 437.345
PRISM 22 Dec 18:40:03 18:44:13 71° 286° (WNW) 18:48:18 437.425
ISS 22 Dec 18:40:09 18:43:26 83° 210° (SSW) 18:46:42 145.825
MOZHAYETS 4 22 Dec 18:45:58 18:48:11 13° 301° (WNW) 18:50:23
HO-68 22 Dec 18:48:40 18:54:56 34° 59° (ENE) 19:01:13 435.675
CANX-2 22 Dec 18:57:28 19:00:27 19° 64° (ENE) 19:03:27 2200.000
BRITE-PL 22 Dec 19:04:24 19:07:30 21° 65° (ENE) 19:10:38 437.365/2234.400
GONETS M04 22 Dec 19:05:21 19:08:45 13° 289° (WNW) 19:12:08
COMPASS 1 22 Dec 19:12:56 19:15:50 18° 63° (ENE) 19:18:44 437.405
DANDE 22 Dec 19:17:42 19:24:56 42° 71° (ENE) 19:33:00 436.750
GOMX 1 22 Dec 19:19:32 19:22:42 22° 65° (ENE) 19:25:55 467.674
SEEDS 22 Dec 19:20:53 19:24:22 25° 66° (ENE) 19:27:53 437.485
CUTE 1.7 + AOD 2 22 Dec 19:26:57 19:30:46 33° 69° (ENE) 19:34:38 437.475
DOVE 4 22 Dec 19:34:19 19:37:35 23° 65° (ENE) 19:40:56 437.250
PCSat 22 Dec 19:34:58 19:36:14 11° 24° (NNE) 19:37:30 145.827
BEESAT 2 22 Dec 19:36:28 19:38:50 15° 33° (NNE) 19:41:11 435.950
STRAND 1 22 Dec 19:39:32 19:44:29 53° 290° (WNW) 19:49:25 437.568
CINEMA 3 22 Dec 19:43:28 19:46:19 18° 63° (ENE) 19:49:14 145.822/145.860
UWE-3 22 Dec 19:47:06 19:48:15 11° 58° (ENE) 19:49:23 435.000/436.395/437.385
DX 1 22 Dec 19:53:39 19:56:41 19° 63° (ENE) 19:59:43 434.975-435.025
CUSAT 1 22 Dec 19:57:55 20:05:45 79° 79° (ENE) 20:14:18 437.405
SO-50 22 Dec 20:07:32 20:11:41 36° 117° (ESE) 20:15:58 436.795
AISAT 22 Dec 20:09:42 20:09:51 10° 57° (ENE) 20:10:01 437.250
AAUSAT CUBESAT 2 22 Dec 20:09:55 20:14:04 60° 73° (ENE) 20:18:16 437.432
Oscar 11 22 Dec 20:11:05 20:14:58 33° 68° (ENE) 20:18:53 145.826/435.025
CUBESAT XI-V 22 Dec 20:14:30 20:17:44 19° 297° (WNW) 20:20:58 437.345
ISS 22 Dec 20:18:02 20:19:32 13° 227° (SW) 20:21:02 145.825
UKube-1 22 Dec 20:21:09 20:25:02 33° 68° (ENE) 20:28:55 .
BEESAT 3 22 Dec 20:31:41 20:35:34 36° 46° (NE) 20:39:24 437.485
CANX-2 22 Dec 20:31:56 20:36:03 47° 261° (W) 20:40:14 2200.000
HO-68 22 Dec 20:35:20 20:42:21 55° 259° (WSW) 20:49:24 435.675
RS-15 22 Dec 20:39:42 20:50:56 77° 240° (WSW) 21:02:39 29.354- 29.394
BRITE-PL 22 Dec 20:42:01 20:45:51 36° 263° (W) 20:49:43 437.365/2234.400
CUBEBUG 2 22 Dec 20:46:47 20:50:49 48° 71° (ENE) 20:55:00 437.445
COMPASS 1 22 Dec 20:47:07 20:51:12 48° 261° (W) 20:55:20 437.405
ZACube-1 22 Dec 20:47:30 20:51:21 36° 69° (ENE) 20:55:18 437.345
DELFI C3 22 Dec 20:49:23 20:53:28 68° 74° (ENE) 20:57:36 145.870
50 SAT 22 Dec 20:50:55 20:53:47 19° 64° (ENE) 20:56:40 437.505
AIST 2 22 Dec 20:51:51 20:55:35 28° 43° (NE) 20:59:16 435.215
SEEDS 22 Dec 20:56:13 21:00:04 33° 264° (W) 21:03:57 437.485
GOMX 1 22 Dec 20:56:51 21:00:39 35° 263° (W) 21:04:33 467.674
VELOX 1 22 Dec 20:57:30 21:01:16 28° 66° (ENE) 21:05:03 145.980
DANDE 22 Dec 21:01:04 21:08:33 52° 267° (W) 21:16:52 436.750
CUTE 1.7 + AOD 2 22 Dec 21:03:12 21:06:44 25° 266° (W) 21:10:19 437.475
ESTCUBE 1 22 Dec 21:09:30 21:12:27 17° 62° (ENE) 21:15:24 437.505/2401.250
DOVE 4 22 Dec 21:11:26 21:15:13 34° 264° (W) 21:19:06 437.250
FUNcube-1 22 Dec 21:13:08 21:17:18 67° 74° (ENE) 21:21:35 145.935
BEESAT 2 22 Dec 21:13:35 21:17:48 76° 54° (NE) 21:21:58 435.950
PCSat 22 Dec 21:16:20 21:21:20 36° 47° (NE) 21:26:18 145.827
CINEMA 3 22 Dec 21:19:09 21:23:10 47° 261° (W) 21:27:21 145.822/145.860
UWE-3 22 Dec 21:19:52 21:24:04 87° 257° (WSW) 21:28:25 435.000/436.395/437.385
UNISAT 6 22 Dec 21:24:57 21:26:34 12° 87° (E) 21:28:11 437.425
DX 1 22 Dec 21:28:23 21:32:35 48° 260° (W) 21:36:48 434.975-435.025
HUMSAT D 22 Dec 21:29:59 21:34:04 60° 73° (ENE) 21:38:14 437.325/437.525
CUBEBUG 1 22 Dec 21:39:22 21:43:08 29° 67° (ENE) 21:46:54 437.445
AISAT 22 Dec 21:41:18 21:45:43 80° 75° (ENE) 21:50:09 437.250
CUSAT 1 22 Dec 21:42:01 21:48:15 27° 275° (W) 21:54:53 437.405
Oscar 11 22 Dec 21:47:34 21:51:10 25° 266° (W) 21:54:49 145.826/435.025
AAUSAT CUBESAT 2 22 Dec 21:48:02 21:50:08 14° 271° (W) 21:52:15 437.432
SO-50 22 Dec 21:48:03 21:52:15 34° 317° (NW) 21:56:35 436.795
ANTELSAT 22 Dec 21:55:20 21:59:09 24° 93° (E) 22:02:57 437.575/2403.000
UKube-1 22 Dec 21:57:37 22:01:13 25° 265° (W) 22:04:51 .
POPSAT HIP 1 22 Dec 22:03:58 22:06:46 17° 92° (E) 22:09:34 437.405
BEESAT 3 22 Dec 22:10:04 22:13:39 28° 245° (WSW) 22:17:11 437.485
BUGSAT 1 22 Dec 22:18:05 22:20:55 18° 93° (E) 22:23:44 437.445
YUBILEINY 22 Dec 22:18:40 22:25:31 27° 80° (E) 22:32:19 435.215
ZACube-1 22 Dec 22:24:33 22:27:51 22° 267° (W) 22:31:13 437.345
50 SAT 22 Dec 22:24:55 22:28:43 40° 262° (W) 22:32:35 437.505
CUBEBUG 2 22 Dec 22:25:08 22:27:51 17° 270° (W) 22:30:38 437.445
TISAT 1 22 Dec 22:27:00 22:30:23 24° 66° (ENE) 22:33:46 437.305
DELFI C3 22 Dec 22:27:52 22:29:12 11° 272° (W) 22:30:33 145.870
TIGRISAT 22 Dec 22:28:48 22:33:23 48° 99° (E) 22:37:57 435.000
DUCHIFAT 1 22 Dec 22:29:58 22:33:46 31° 96° (E) 22:37:33 145.980
AIST 2 22 Dec 22:30:17 22:34:20 41° 242° (WSW) 22:38:19 435.215
VELOX 1 22 Dec 22:33:52 22:37:47 31° 264° (W) 22:41:43 145.980
SPROUT 22 Dec 22:37:51 22:41:31 29° 67° (ENE) 22:45:13 437.525
ESTCUBE 1 22 Dec 22:44:25 22:48:53 58° 259° (W) 22:53:22 437.505/2401.250
QB50P2 22 Dec 22:45:06 22:49:14 46° 99° (E) 22:53:21 145.880/145.840
DANDE 22 Dec 22:49:10 22:50:38 11° 284° (WNW) 22:52:08 436.750
FUNcube-1 22 Dec 22:52:29 22:54:10 12° 272° (W) 22:55:52 145.935
BEESAT 2 22 Dec 22:53:41 22:55:27 12° 251° (WSW) 22:57:13 435.950
RS-15 22 Dec 22:54:08 23:01:26 20° 261° (W) 23:08:58 29.354- 29.394
POLYITAN 1 22 Dec 22:54:44 22:58:59 58° 101° (E) 23:03:14 437.675
NANOSAT C BR1 22 Dec 22:54:48 22:59:01 57° 101° (E) 23:03:13 145.865
O/OREOS (USA 219) 22 Dec 22:56:55 22:58:18 11° 97° (E) 22:59:41 437.305
UNISAT 6 22 Dec 22:59:12 23:03:57 84° 285° (WNW) 23:08:41 437.425
PCSat 22 Dec 22:59:45 23:04:49 41° 247° (WSW) 23:09:50 145.827
HUMSAT D 22 Dec 23:08:20 23:10:17 13° 271° (W) 23:12:16 437.325/437.525
BEESAT 22 Dec 23:08:30 23:10:49 14° 58° (ENE) 23:13:09 436.000
QB50P1 22 Dec 23:09:37 23:13:55 84° 103° (ESE) 23:18:11 145.935-145.965
M-CUBED/EXP-1 PRIME 22 Dec 23:10:02 23:11:13 11° 50° (NE) 23:12:23 437.505
CUBEBUG 1 22 Dec 23:15:40 23:19:28 29° 264° (W) 23:23:16 437.445
AISAT 22 Dec 23:21:48 23:22:54 11° 272° (W) 23:24:01 437.250
ANTELSAT 22 Dec 23:31:38 23:36:05 42° 290° (WNW) 23:40:31 437.575/2403.000
SO-50 22 Dec 23:33:12 23:34:15 11° 340° (NNW) 23:35:19 436.795
POPSAT HIP 1 22 Dec 23:38:49 23:42:56 48° 289° (WNW) 23:47:03 437.405
BUGSAT 1 22 Dec 23:52:46 23:56:36 41° 289° (WNW) 00:00:26 437.445
TISAT 1 23 Dec 00:02:15 00:06:04 33° 263° (W) 00:09:54 437.305
DUCHIFAT 1 23 Dec 00:05:57 00:09:32 27° 293° (WNW) 00:13:06 145.980
TIGRISAT 23 Dec 00:06:15 00:09:48 22° 296° (WNW) 00:13:22 435.000
YUBILEINY 23 Dec 00:12:46 00:21:29 72° 281° (W) 00:30:13 435.215
AUBIESAT-1 23 Dec 00:13:32 00:17:53 33° 62° (ENE) 00:22:13 437.475
SPROUT 23 Dec 00:13:52 00:17:34 28° 265° (W) 00:21:18 437.525
SWISSCUBE 23 Dec 00:18:47 00:23:30 61° 72° (ENE) 00:28:14 437.505
ITUPSAT 1 23 Dec 00:20:19 00:25:01 58° 72° (ENE) 00:29:44 437.325
QB50P2 23 Dec 00:21:48 00:24:50 19° 296° (WNW) 00:27:52 145.880/145.840
NANOSAT C BR1 23 Dec 00:31:53 00:34:28 16° 298° (WNW) 00:37:02 145.865
POLYITAN 1 23 Dec 00:31:54 00:34:30 16° 298° (WNW) 00:37:05 437.675
O/OREOS (USA 219) 23 Dec 00:32:33 00:37:01 78° 295° (WNW) 00:41:30 437.305
Oscar 19 23 Dec 00:38:09 00:42:04 21° 92° (E) 00:45:57 437.125/150
UNISAT 6 23 Dec 00:38:17 00:39:59 12° 302° (WNW) 00:41:41 437.425
M-CUBED/EXP-1 PRIME 23 Dec 00:40:28 00:45:17 62° 67° (ENE) 00:50:08 437.505
BEESAT 23 Dec 00:43:11 00:47:59 86° 256° (WSW) 00:52:49 436.000
QB50P1 23 Dec 00:47:44 00:49:10 12° 301° (WNW) 00:50:36 145.935-145.965
